WZZ2AC LICC-LIMJ

Flight info

Callsign WZZ2AC
Flight time 1h 22m
Altitude 36000
Route BUDIN DCT TAGEL DCT ELB DCT BETEN/N0360F180 M729 IDONA
Aircraft A321/M-SDE3FGHIRWY/LB1

Departure

Time 2026-04-26 16:41
Airport Catania-Fontanarossa Airport (LICC)

Arrival

Time 2026-04-26 18:03
Airport Genoa Cristoforo Colombo Airport (LIMJ)
Time Latitude Longitude Altitude Speed Heading
2026-04-26 15:59 37.46933 15.06575 49 ft 0 kts 19°
2026-04-26 16:04 37.46932 15.06575 51 ft 0 kts 19°
2026-04-26 16:06 37.46932 15.06574 51 ft 0 kts 19°
2026-04-26 16:30 37.46918 15.06568 49 ft 4 kts 21°
2026-04-26 16:30 37.46894 15.06557 51 ft 4 kts 13°
2026-04-26 16:30 37.46868 15.06552 51 ft 4 kts 352°
2026-04-26 16:30 37.46846 15.06564 74 ft 4 kts 302°
2026-04-26 16:31 37.46840 15.06590 51 ft 1 kts 264°
2026-04-26 16:33 37.46839 15.06577 47 ft 4 kts 264°
2026-04-26 16:33 37.46835 15.06530 47 ft 6 kts 264°
2026-04-26 16:33 37.46829 15.06463 51 ft 10 kts 264°
2026-04-26 16:34 37.46821 15.06365 51 ft 12 kts 264°
2026-04-26 16:34 37.46812 15.06257 51 ft 13 kts 264°
2026-04-26 16:34 37.46802 15.06143 51 ft 14 kts 264°
2026-04-26 16:34 37.46792 15.06022 48 ft 14 kts 264°
2026-04-26 16:35 37.46781 15.05893 51 ft 15 kts 264°
2026-04-26 16:35 37.46770 15.05756 51 ft 16 kts 264°
2026-04-26 16:35 37.46759 15.05624 51 ft 15 kts 264°
2026-04-26 16:35 37.46748 15.05500 49 ft 14 kts 264°
2026-04-26 16:36 37.46738 15.05380 51 ft 12 kts 264°
2026-04-26 16:36 37.46707 15.05299 50 ft 10 kts 225°
2026-04-26 16:36 37.46674 15.05259 51 ft 0 kts 223°
2026-04-26 16:39 37.46673 15.05258 51 ft 1 kts 223°
2026-04-26 16:39 37.46658 15.05240 48 ft 6 kts 223°
2026-04-26 16:39 37.46617 15.05198 51 ft 8 kts 205°
2026-04-26 16:39 37.46565 15.05222 51 ft 9 kts 121°
2026-04-26 16:40 37.46561 15.05255 51 ft 0 kts 85°
2026-04-26 16:40 37.46561 15.05256 51 ft 3 kts 85°
2026-04-26 16:40 37.46590 15.05603 50 ft 76 kts 84°
2026-04-26 16:40 37.46671 15.06540 53 ft 137 kts 84°
2026-04-26 16:41 37.46786 15.07899 303 ft 161 kts 83°
2026-04-26 16:41 37.46884 15.09241 1225 ft 149 kts 84°
2026-04-26 16:41 37.47038 15.10561 1806 ft 159 kts 79°
2026-04-26 16:41 37.47304 15.11998 2084 ft 177 kts 80°
2026-04-26 16:42 37.47546 15.13617 2305 ft 199 kts 82°
2026-04-26 16:42 37.47787 15.15421 2494 ft 220 kts 81°
2026-04-26 16:42 37.48058 15.17428 2640 ft 246 kts 82°
2026-04-26 16:42 37.48354 15.19600 3190 ft 255 kts 81°
2026-04-26 16:43 37.48660 15.21825 3871 ft 260 kts 81°
2026-04-26 16:43 37.48973 15.24078 4632 ft 263 kts 80°
2026-04-26 16:43 37.49319 15.26346 5361 ft 265 kts 72°
2026-04-26 16:43 37.50077 15.28453 6130 ft 265 kts 55°
2026-04-26 16:44 37.51307 15.30182 6688 ft 273 kts 37°
2026-04-26 16:44 37.52918 15.31491 7331 ft 278 kts 31°
2026-04-26 16:44 37.54571 15.32766 8024 ft 281 kts 31°
2026-04-26 16:44 37.56247 15.34073 8723 ft 284 kts 32°
2026-04-26 16:45 37.57934 15.35392 9428 ft 288 kts 32°
2026-04-26 16:45 37.59646 15.36734 10127 ft 291 kts 32°
2026-04-26 16:45 37.61403 15.38115 10456 ft 308 kts 32°
2026-04-26 16:45 37.63286 15.39600 10584 ft 330 kts 32°
2026-04-26 16:46 37.65283 15.41171 10916 ft 344 kts 32°
2026-04-26 16:46 37.67360 15.42793 11233 ft 357 kts 30°
2026-04-26 16:46 37.69671 15.44001 11745 ft 363 kts 13°
2026-04-26 16:46 37.72198 15.44258 12311 ft 367 kts 354°
2026-04-26 16:47 37.74674 15.43468 12902 ft 370 kts 339°
2026-04-26 16:47 37.77096 15.42319 13527 ft 374 kts 338°
2026-04-26 16:47 37.79536 15.41138 14106 ft 378 kts 338°
2026-04-26 16:47 37.81999 15.39938 14660 ft 381 kts 338°
2026-04-26 16:48 37.84481 15.38730 15241 ft 384 kts 338°
2026-04-26 16:48 37.86989 15.37515 15814 ft 386 kts 338°
2026-04-26 16:48 37.89504 15.36297 16396 ft 389 kts 338°
2026-04-26 16:48 37.92048 15.35068 16987 ft 392 kts 338°
2026-04-26 16:49 37.94570 15.33851 17552 ft 394 kts 338°
2026-04-26 16:49 37.97181 15.32593 18148 ft 397 kts 338°
2026-04-26 16:49 37.99738 15.31358 18662 ft 400 kts 338°
2026-04-26 16:49 38.02340 15.30099 19168 ft 402 kts 338°
2026-04-26 16:50 38.04968 15.28823 19676 ft 405 kts 338°
2026-04-26 16:50 38.07608 15.27544 20170 ft 408 kts 338°
2026-04-26 16:50 38.10265 15.26257 20640 ft 410 kts 338°
2026-04-26 16:50 38.12936 15.24957 21130 ft 412 kts 338°
2026-04-26 16:51 38.15629 15.23648 21609 ft 415 kts 338°
2026-04-26 16:51 38.18331 15.22332 22068 ft 417 kts 338°
2026-04-26 16:51 38.21043 15.21012 22517 ft 419 kts 338°
2026-04-26 16:51 38.23778 15.19682 22970 ft 422 kts 338°
2026-04-26 16:52 38.26528 15.18342 23390 ft 424 kts 338°
2026-04-26 16:52 38.27421 15.17906 23530 ft 425 kts 338°
2026-04-26 16:52 38.32072 15.15629 24154 ft 429 kts 338°
2026-04-26 16:52 38.34870 15.14258 24524 ft 431 kts 338°
2026-04-26 16:53 38.37669 15.12891 24887 ft 433 kts 338°
2026-04-26 16:53 38.40490 15.11512 25209 ft 436 kts 338°
2026-04-26 16:53 38.42368 15.10592 25448 ft 437 kts 338°
2026-04-26 16:53 38.46135 15.08721 25899 ft 439 kts 335°
2026-04-26 16:54 38.48821 15.06871 26240 ft 439 kts 325°
2026-04-26 16:54 38.51296 15.04577 26585 ft 440 kts 322°
2026-04-26 16:54 38.53764 15.02248 26929 ft 442 kts 322°
2026-04-26 16:54 38.55434 15.00674 27159 ft 443 kts 322°
2026-04-26 16:55 38.57926 14.98329 27493 ft 445 kts 322°
2026-04-26 16:55 38.60415 14.95985 27825 ft 446 kts 322°
2026-04-26 16:55 38.62919 14.93626 28133 ft 448 kts 322°
2026-04-26 16:55 38.65435 14.91250 28411 ft 451 kts 322°
2026-04-26 16:56 38.70512 14.86450 29034 ft 455 kts 322°
2026-04-26 16:56 38.73062 14.84033 29360 ft 457 kts 322°
2026-04-26 16:56 38.75581 14.81644 29755 ft 456 kts 322°
2026-04-26 16:57 38.78155 14.79201 30201 ft 454 kts 322°
2026-04-26 16:57 38.80689 14.76790 30589 ft 453 kts 322°
2026-04-26 16:57 38.85702 14.72015 31339 ft 450 kts 322°
2026-04-26 16:58 38.88210 14.69625 31703 ft 449 kts 322°
2026-04-26 16:58 38.89871 14.68041 31910 ft 449 kts 322°
2026-04-26 16:58 38.95716 14.62456 32707 ft 447 kts 322°
2026-04-26 16:59 38.98208 14.60076 33067 ft 445 kts 322°
2026-04-26 16:59 39.03165 14.55333 33779 ft 443 kts 322°
2026-04-26 17:00 39.08106 14.50601 34170 ft 445 kts 321°
2026-04-26 17:00 39.15590 14.43393 34172 ft 450 kts 322°
2026-04-26 17:01 39.20615 14.38553 34149 ft 451 kts 322°
2026-04-26 17:01 39.25645 14.33701 34152 ft 452 kts 322°
2026-04-26 17:02 39.30680 14.28833 34162 ft 452 kts 322°
2026-04-26 17:02 39.35709 14.23959 34167 ft 452 kts 322°
2026-04-26 17:03 39.40734 14.19074 34166 ft 452 kts 322°
2026-04-26 17:03 39.45764 14.14190 34168 ft 452 kts 322°
2026-04-26 17:04 39.50796 14.09290 34176 ft 452 kts 322°
2026-04-26 17:04 39.55778 14.04421 34168 ft 452 kts 322°
2026-04-26 17:05 39.60800 13.99511 34174 ft 452 kts 322°
2026-04-26 17:05 39.65830 13.94597 34174 ft 452 kts 322°
2026-04-26 17:06 39.70845 13.89669 34169 ft 452 kts 322°
2026-04-26 17:06 39.75861 13.84739 34161 ft 452 kts 322°
2026-04-26 17:07 39.80881 13.79793 34159 ft 452 kts 322°
2026-04-26 17:07 39.85895 13.74843 34163 ft 452 kts 322°
2026-04-26 17:08 39.90903 13.69891 34150 ft 453 kts 322°
2026-04-26 17:08 39.95925 13.64924 34160 ft 453 kts 322°
2026-04-26 17:09 40.00085 13.60789 34168 ft 453 kts 322°
2026-04-26 17:09 40.05935 13.54964 34162 ft 453 kts 322°
2026-04-26 17:10 40.10913 13.50001 34166 ft 453 kts 322°
2026-04-26 17:10 40.15948 13.44979 34157 ft 453 kts 322°
2026-04-26 17:11 40.20959 13.39977 34160 ft 453 kts 322°
2026-04-26 17:11 40.25938 13.34983 34156 ft 453 kts 322°
2026-04-26 17:12 40.33349 13.27274 34165 ft 453 kts 319°
2026-04-26 17:13 40.40435 13.19038 34158 ft 453 kts 318°
2026-04-26 17:14 40.47526 13.10824 34157 ft 453 kts 319°
2026-04-26 17:14 40.54658 13.02670 34161 ft 453 kts 319°
2026-04-26 17:15 40.61778 12.94478 34160 ft 453 kts 319°
2026-04-26 17:16 40.66509 12.89016 34170 ft 453 kts 319°
2026-04-26 17:16 40.71245 12.83553 34170 ft 452 kts 319°
2026-04-26 17:17 40.75975 12.78087 34152 ft 450 kts 319°
2026-04-26 17:17 40.80598 12.72715 34155 ft 439 kts 318°
2026-04-26 17:18 40.85173 12.67390 34141 ft 438 kts 318°
2026-04-26 17:18 40.89731 12.62072 34142 ft 437 kts 318°
2026-04-26 17:19 40.96576 12.54090 34150 ft 437 kts 318°
2026-04-26 17:19 41.01124 12.48756 34155 ft 437 kts 318°
2026-04-26 17:20 41.04906 12.44317 34160 ft 437 kts 318°
2026-04-26 17:20 41.10231 12.38076 34158 ft 437 kts 318°
2026-04-26 17:21 41.14773 12.32726 34167 ft 436 kts 317°
2026-04-26 17:21 41.19306 12.27372 34169 ft 436 kts 317°
2026-04-26 17:22 41.23832 12.22027 34152 ft 435 kts 317°
2026-04-26 17:22 41.28330 12.16700 34160 ft 435 kts 317°
2026-04-26 17:23 41.32852 12.11332 34163 ft 435 kts 317°
2026-04-26 17:23 41.37362 12.05967 34164 ft 435 kts 317°
2026-04-26 17:24 41.41874 12.00600 34162 ft 435 kts 317°
2026-04-26 17:24 41.46381 11.95227 34168 ft 434 kts 317°
2026-04-26 17:25 41.50884 11.89844 34166 ft 434 kts 317°
2026-04-26 17:25 41.55383 11.84456 34160 ft 434 kts 317°
2026-04-26 17:26 41.59841 11.79101 34156 ft 434 kts 317°
2026-04-26 17:26 41.64329 11.73709 34160 ft 434 kts 317°
2026-04-26 17:27 41.68809 11.68311 34169 ft 433 kts 317°
2026-04-26 17:27 41.73289 11.62900 34166 ft 433 kts 317°
2026-04-26 17:28 41.77755 11.57499 34158 ft 433 kts 316°
2026-04-26 17:28 41.82225 11.52079 34152 ft 433 kts 316°
2026-04-26 17:29 41.85937 11.47574 34176 ft 433 kts 316°
2026-04-26 17:29 41.91141 11.41231 34158 ft 432 kts 316°
2026-04-26 17:30 41.95596 11.35806 34158 ft 432 kts 316°
2026-04-26 17:30 42.00046 11.30375 34161 ft 432 kts 316°
2026-04-26 17:31 42.04489 11.24934 34164 ft 432 kts 316°
2026-04-26 17:31 42.08928 11.19487 34177 ft 432 kts 316°
2026-04-26 17:32 42.13357 11.14041 34186 ft 429 kts 316°
2026-04-26 17:32 42.17723 11.08669 34181 ft 426 kts 316°
2026-04-26 17:33 42.22093 11.03280 34165 ft 425 kts 316°
2026-04-26 17:34 42.28621 10.95201 34167 ft 424 kts 316°
2026-04-26 17:34 42.32964 10.89815 34166 ft 424 kts 316°
2026-04-26 17:35 42.37307 10.84421 34162 ft 423 kts 316°
2026-04-26 17:35 42.41636 10.79034 34162 ft 423 kts 316°
2026-04-26 17:36 42.45969 10.73626 34164 ft 423 kts 316°
2026-04-26 17:36 42.50291 10.68225 34164 ft 423 kts 316°
2026-04-26 17:37 42.54618 10.62805 34167 ft 423 kts 316°
2026-04-26 17:37 42.58935 10.57384 34165 ft 423 kts 316°
2026-04-26 17:38 42.64674 10.50166 34172 ft 422 kts 316°
2026-04-26 17:38 42.69678 10.43868 34172 ft 421 kts 316°
2026-04-26 17:39 42.73383 10.39507 34166 ft 421 kts 324°
2026-04-26 17:39 42.78463 10.35521 34053 ft 420 kts 330°
2026-04-26 17:40 42.80967 10.33636 33778 ft 412 kts 330°
2026-04-26 17:40 42.82650 10.32368 33579 ft 409 kts 330°
2026-04-26 17:40 42.85947 10.29881 33127 ft 402 kts 330°
2026-04-26 17:40 42.88355 10.28065 32695 ft 398 kts 330°
2026-04-26 17:41 42.90767 10.26247 32259 ft 394 kts 330°
2026-04-26 17:41 42.93158 10.24443 31824 ft 391 kts 330°
2026-04-26 17:41 42.95529 10.22650 31383 ft 388 kts 330°
2026-04-26 17:41 42.97881 10.20866 30965 ft 385 kts 330°
2026-04-26 17:42 43.00216 10.19090 30545 ft 383 kts 330°
2026-04-26 17:42 43.02532 10.17326 30130 ft 381 kts 330°
2026-04-26 17:42 43.04840 10.15572 29681 ft 378 kts 330°
2026-04-26 17:42 43.07134 10.13831 29288 ft 374 kts 330°
2026-04-26 17:43 43.09396 10.12109 28899 ft 372 kts 330°
2026-04-26 17:43 43.11651 10.10391 28505 ft 369 kts 330°
2026-04-26 17:43 43.13880 10.08688 28129 ft 365 kts 330°
2026-04-26 17:43 43.16089 10.06999 27753 ft 362 kts 330°
2026-04-26 17:44 43.18273 10.05331 27382 ft 359 kts 330°
2026-04-26 17:44 43.20460 10.03660 27018 ft 365 kts 329°
2026-04-26 17:44 43.22695 10.01952 26639 ft 369 kts 329°
2026-04-26 17:44 43.24942 10.00229 26248 ft 369 kts 329°
2026-04-26 17:45 43.27179 9.98516 25865 ft 368 kts 329°
2026-04-26 17:45 43.29459 9.96771 25475 ft 388 kts 330°
2026-04-26 17:45 43.31905 9.94896 25028 ft 415 kts 330°
2026-04-26 17:45 43.34499 9.92903 24556 ft 438 kts 330°
2026-04-26 17:46 43.37156 9.90860 24063 ft 447 kts 330°
2026-04-26 17:46 43.39888 9.88759 23510 ft 452 kts 330°
2026-04-26 17:46 43.42637 9.86642 22993 ft 454 kts 330°
2026-04-26 17:46 43.45400 9.84509 22453 ft 455 kts 330°
2026-04-26 17:47 43.48160 9.82377 21925 ft 457 kts 329°
2026-04-26 17:47 43.50037 9.80924 21560 ft 458 kts 329°
2026-04-26 17:47 43.53727 9.78063 20846 ft 461 kts 329°
2026-04-26 17:47 43.56522 9.75892 20301 ft 460 kts 330°
2026-04-26 17:48 43.59277 9.73756 19810 ft 448 kts 330°
2026-04-26 17:48 43.61937 9.71693 19658 ft 429 kts 330°
2026-04-26 17:48 43.64500 9.69703 19263 ft 418 kts 329°
2026-04-26 17:48 43.67017 9.67746 18719 ft 413 kts 330°
2026-04-26 17:49 43.69508 9.65806 18111 ft 409 kts 330°
2026-04-26 17:49 43.71959 9.63896 17849 ft 398 kts 330°
2026-04-26 17:49 43.74330 9.62045 17709 ft 383 kts 330°
2026-04-26 17:49 43.76608 9.60264 17577 ft 369 kts 330°
2026-04-26 17:50 43.78804 9.58548 17405 ft 357 kts 330°
2026-04-26 17:50 43.80945 9.56874 17021 ft 351 kts 330°
2026-04-26 17:50 43.83062 9.55218 16557 ft 348 kts 330°
2026-04-26 17:50 43.85162 9.53573 16079 ft 346 kts 330°
2026-04-26 17:51 43.87245 9.51938 15708 ft 340 kts 330°
2026-04-26 17:51 43.89248 9.50366 15508 ft 322 kts 330°
2026-04-26 17:51 43.91142 9.48879 15315 ft 313 kts 330°
2026-04-26 17:51 43.93022 9.47402 15004 ft 309 kts 330°
2026-04-26 17:52 43.94888 9.45934 14613 ft 307 kts 330°
2026-04-26 17:52 43.96740 9.44472 14273 ft 306 kts 330°
2026-04-26 17:52 43.98447 9.42732 13908 ft 304 kts 316°
2026-04-26 17:52 43.99806 9.40497 13447 ft 301 kts 305°
2026-04-26 17:53 44.00990 9.38119 12643 ft 298 kts 305°
2026-04-26 17:53 44.02161 9.35749 11872 ft 297 kts 305°
2026-04-26 17:53 44.03418 9.33500 11132 ft 295 kts 317°
2026-04-26 17:54 44.06782 9.29968 9828 ft 305 kts 335°
2026-04-26 17:54 44.08776 9.29448 9643 ft 290 kts
2026-04-26 17:54 44.10622 9.30445 9336 ft 286 kts 38°
2026-04-26 17:54 44.12143 9.32171 9162 ft 276 kts 33°
2026-04-26 17:55 44.13911 9.32932 9104 ft 265 kts
2026-04-26 17:55 44.15746 9.32742 9036 ft 264 kts 354°
2026-04-26 17:55 44.17556 9.32407 8607 ft 262 kts 353°
2026-04-26 17:55 44.19363 9.32098 8170 ft 261 kts 354°
2026-04-26 17:56 44.21144 9.31682 7785 ft 258 kts 341°
2026-04-26 17:56 44.24011 9.29091 7396 ft 239 kts 323°
2026-04-26 17:57 44.26646 9.26292 6700 ft 237 kts 324°
2026-04-26 17:57 44.27961 9.24911 6338 ft 236 kts 324°
2026-04-26 17:57 44.29271 9.23534 5951 ft 235 kts 324°
2026-04-26 17:57 44.30574 9.22159 5584 ft 234 kts 323°
2026-04-26 17:58 44.33981 9.17445 4526 ft 232 kts 293°
2026-04-26 17:59 44.34984 9.13220 3667 ft 226 kts 286°
2026-04-26 17:59 44.35435 9.11122 3409 ft 218 kts 286°
2026-04-26 17:59 44.35849 9.09213 3396 ft 193 kts 286°
2026-04-26 17:59 44.36219 9.07510 3297 ft 184 kts 284°
2026-04-26 18:00 44.36610 9.05701 3081 ft 197 kts 284°
2026-04-26 18:00 44.37003 9.03887 2820 ft 197 kts 284°
2026-04-26 18:00 44.37394 9.02085 2547 ft 191 kts 285°
2026-04-26 18:00 44.37772 9.00339 2280 ft 185 kts 285°
2026-04-26 18:01 44.38139 8.98645 2022 ft 179 kts 285°
2026-04-26 18:01 44.38492 8.97007 1769 ft 171 kts 285°
2026-04-26 18:01 44.38822 8.95481 1546 ft 157 kts 285°
2026-04-26 18:01 44.39131 8.94049 1319 ft 151 kts 286°
2026-04-26 18:02 44.39432 8.92653 1101 ft 149 kts 285°
2026-04-26 18:02 44.39629 8.91739 969 ft 148 kts 285°
2026-04-26 18:02 44.40024 8.89904 694 ft 146 kts 285°
2026-04-26 18:02 44.40314 8.88551 507 ft 144 kts 284°
2026-04-26 18:03 44.40594 8.87213 289 ft 142 kts 284°
2026-04-26 18:03 44.40862 8.85885 85 ft 142 kts 284°
2026-04-26 18:03 44.41106 8.84636 20 ft 118 kts 284°
2026-04-26 18:03 44.41257 8.83869 22 ft 38 kts 285°
2026-04-26 18:04 44.41300 8.83650 21 ft 21 kts 285°
2026-04-26 18:04 44.41338 8.83458 23 ft 20 kts 285°
2026-04-26 18:04 44.41374 8.83272 24 ft 21 kts 288°
2026-04-26 18:05 44.41502 8.83087 24 ft 6 kts 358°
2026-04-26 18:05 44.41526 8.83095 24 ft 3 kts 24°
2026-04-26 18:05 44.41541 8.83118 25 ft 4 kts 56°
2026-04-26 18:05 44.41544 8.83154 28 ft 5 kts 86°
2026-04-26 18:06 44.41538 8.83224 25 ft 9 kts 103°
2026-04-26 18:06 44.41522 8.83319 24 ft 12 kts 103°
2026-04-26 18:06 44.41500 8.83433 23 ft 12 kts 105°
2026-04-26 18:06 44.41475 8.83554 22 ft 14 kts 106°
2026-04-26 18:07 44.41446 8.83692 20 ft 15 kts 105°
2026-04-26 18:07 44.41418 8.83842 19 ft 17 kts 105°
2026-04-26 18:07 44.41398 8.83940 20 ft 8 kts 105°
2026-04-26 18:07 44.41387 8.83997 18 ft 11 kts 105°
2026-04-26 18:08 44.41354 8.84161 18 ft 15 kts 105°
2026-04-26 18:08 44.41326 8.84305 19 ft 15 kts 105°
2026-04-26 18:08 44.41318 8.84407 19 ft 10 kts 74°
2026-04-26 18:08 44.41362 8.84494 18 ft 12 kts 53°
2026-04-26 18:09 44.41415 8.84592 18 ft 13 kts 52°
2026-04-26 18:09 44.41469 8.84689 18 ft 12 kts 52°
2026-04-26 18:09 44.41488 8.84717 19 ft 2 kts 16°
2026-04-26 18:09 44.41521 8.84694 19 ft 7 kts 326°
2026-04-26 18:10 44.41558 8.84704 18 ft 6 kts 44°
2026-04-26 18:10 44.41578 8.84742 18 ft 4 kts 52°
2026-04-26 18:10 44.41581 8.84747 18 ft 0 kts 52°